Apple Cup Yearling Classic - 1st Training Toss 2017

Station: Moxee Dump Rd - T Race

Distance: 4 Miles

Release: 20-Mar-2017 09:30

Weather Release:    Arrival:

Wind at Release: Windy     Wind at Arrival: Windy

Temp at Release: 40F°    Temp at Arrival: °

Lofts: 155

Birds: 608

Clocked: 594

Good Luck to Everyone!
Drops Pos Breeder Pigeon Name Color Sex Ent Arrival Speed To Win Eligible
1 Little Reata Loft 16224-AU16-JETT BC H 1 09:56:45.71 263.061 00:00:00 Yes
2 Salsloft.Com 1020-AU16-SALS BB H 1 09:56:47.23 262.812 00:00:01 Yes
3 Afernhill 1198-AU16-TAC BB H 1 09:56:48.97 262.528 00:00:03 Yes
4 Alan Porter 0462-AU16-GUYS BB H 1 09:56:49.31 262.473 00:00:03 Yes
5 Haylett Loft 64226-AU16-ARPU BB H 1 09:56:50.78 262.233 00:00:05 Yes
6 Tim Farr 26279-AU16-AA Kristen's Good Boy BB C 1 09:56:51.56 262.106 00:00:05 Yes
7 Ken Easley & Son Racing 4519-AU16-EASL California Bones BC H 1 09:56:53.34 261.817 00:00:07 Yes
8 Fl Lin Loft 4369-AU16-ARPU BB H 1 09:56:54.45 261.637 00:00:08 Yes
9 Bird Dog Syndicate 2 0057-AU16-BURG DC H 1 09:56:54.96 261.554 00:00:09 Yes
10 Aimrude Syndicate 15250-AU16-ARPU BB H 1 09:56:55.76 261.425 00:00:10 Yes
11 John Gutierrez 25800-AU16-FOYS PIED H 1 09:56:57.72 261.108 00:00:12 Yes
12 Zarlenga Loft 2521-AU16-FVC BB H 1 09:56:58.14 261.040 00:00:12 Yes
13 Ganus Family Loft 0627-AU16-GFL BB H 1 09:56:58.73 260.945 00:00:13 Yes
14 Nanez Family Lofts 6766-AU16-NFL Iron-Clad x Kleine Dirka BB H 1 09:56:59.21 260.868 00:00:13 Yes
15 Floridian Loft 2582-AU16-SCHE DEN 82 BB H 1 09:56:59.63 260.800 00:00:13 Yes
16 Greek Connection 0286-AU16-GREK PBx570 BB H 1 09:56:59.66 260.795 00:00:13 Yes
17 John Gutierrez 25801-AU16-FOYS BB H 2 09:57:00.20 260.709 00:00:14 Yes
18 Cactus Lofts 0925-AU16-AONE BB H 1 09:57:00.44 260.670 00:00:14 Yes
19 A-Champ & Rafter's Family Loft 0050-AU16-CHAM BB H 1 09:57:00.81 260.610 00:00:15 Yes
20 Kim Wong 20935-AU16-ARPU BBPD H 1 09:57:01.03 260.575 00:00:15 Yes
21 Wareagle Loft 0265-AU16-WEL BB H 1 09:57:01.59 260.485 00:00:15 Yes
22 Bird Dog Syndicate 2 0018-AU16-BURG BB H 2 09:57:01.64 260.477 00:00:15 Yes
23 American Lofts 7560-AU16-CORP GRIZ H 1 09:57:02.18 260.390 00:00:16 Yes
24 Bynum Family Lofts 0171-AU16-BFL BB H 1 09:57:03.06 260.249 00:00:17 Yes
25 P N W Challenge 6188-AU16-PNWC BB H 1 09:57:03.28 260.214 00:00:17 Yes
26 Dream Team 54101-AU16-ARPU BBPD H 1 09:57:03.44 260.188 00:00:17 Yes
27 Liab Family Loft 0398-AU16-LIAB Inbred 019 BC H 1 09:57:04.31 260.049 00:00:18 Yes
28 Val & Bill 1707-CU16-WCW RC H 1 09:57:05.73 259.822 00:00:20 Yes
29 Fl Lin Loft 77780-AU16-ARPU BB H 2 09:57:05.78 259.814 00:00:20 Yes
30 Igor & Sons Loft 10469-AU16-HOOD BC H 1 09:57:07.01 259.617 00:00:21 Yes
31 Ojibwe Loft 64626-AU16-ARPU BB H 1 09:57:07.02 259.616 00:00:21 Yes
32 Flyhome Loft 18454-AU16-JEDD BLAK H 1 09:57:07.29 259.573 00:00:21 Yes
33 Warbird Loft 6311-AU16-FH King Santos BC H 1 09:57:07.31 259.569 00:00:21 Yes
34 Cactus Lofts 0935-AU16-AONE BB H 2 09:57:07.90 259.475 00:00:22 Yes
35 Yong Sheng Chinese Pigeon Club 20232-AU16-ARPU 永勝 232 BC C 1 09:57:08.12 259.440 00:00:22 Yes
36 Bird Dog Syndicate 2 0056-AU16-BURG BBSP H 3 09:57:08.21 259.426 00:00:22 Yes
37 Jones Boys 7370-AU16-SLI BB H 1 09:57:08.86 259.322 00:00:23 Yes
38 Kim Wong 20923-AU16-ARPU BC H 2 09:57:09.13 259.279 00:00:23 Yes
39 Stelling Loft 0288-AU16-NMRP BB H 1 09:57:10.06 259.132 00:00:24 Yes
40 Wareagle Loft 0237-AU16-WEL BC H 2 09:57:11.16 258.957 00:00:25 Yes
41 Horse Heaven Hills 0676-AU16-HHH BB H 1 09:57:11.57 258.892 00:00:25 Yes
42 Floridian Loft 2554-AU16-SCHE DEN 54 BB H 2 09:57:11.75 258.863 00:00:26 Yes
43 Spirit Loft 0397-AU16-OMAH BB H 1 09:57:12.28 258.779 00:00:26 Yes
44 Ordonez Loft 0466-AU16-FMT BB H 1 09:57:12.44 258.754 00:00:26 Yes
45 Floridian Loft 2565-AU16-SCHE DEN 65 BB H 3 09:57:12.60 258.728 00:00:26 Yes
46 Floridian Loft 2559-AU16-SCHE DEN 59 BB H 4 09:57:14.11 258.489 00:00:28 Yes
47 Floridian Loft 2545-AU16-SCHE DEN 45 BC H 5 09:57:14.47 258.432 00:00:28 Yes
48 Fl Lin Loft 4386-AU16-ARPU GRIZ H 3 09:57:14.61 258.410 00:00:28 Yes
49 Ed Kehl 1684-AU16-WFA GRIZ H 1 09:57:15.25 258.309 00:00:29 Yes
50 Palomera 0469-AU16-GSC Memo Palomera BC H 1 09:57:15.39 258.287 00:00:29 Yes
51 Silvercreek Loft 0700-CU16-GUEL BC H 1 09:57:16.49 258.113 00:00:30 Yes
52 John Partridge 0150-AU16-PASO BB H 1 09:57:16.54 258.106 00:00:30 Yes
53 Fassio/Royer Team 6270-AU16-SLI BB H 1 09:57:16.88 258.052 00:00:31 Yes
54 3 Stars & A Sun Loft 0038-AU16-STAR BB H 1 09:57:17.18 258.005 00:00:31 Yes
55 Kastle Loft 1676-AU16-KAST BB H 1 09:57:17.28 257.989 00:00:31 Yes
56 Arnold Balatbat 62429-AU16-MAN IOWA BC H 1 09:57:17.69 257.924 00:00:31 Yes
57 Bourgoin Family Lofts 88976-AU16-ARPU Ludo-Stoll-Klaas BC H 1 09:57:19.07 257.707 00:00:33 Yes
58 Mc Cormick Loft 0719-AU16-WEF BLK H 1 09:57:19.18 257.690 00:00:33 Yes
59 John Mc Cullough 0563-AU16-NMRP BC H 1 09:57:19.82 257.589 00:00:34 Yes
60 Western Loft 0341-AU16-CHUI BB H 1 09:57:20.12 257.542 00:00:34 Yes
61 Silvercreek Loft 1787-CU16-SILV BCPD H 2 09:57:20.44 257.492 00:00:34 Yes
62 Little Reata Loft 16216-AU16-JETT BB H 2 09:57:21.27 257.362 00:00:35 Yes
63 Little Reata Loft 16225-AU16-JETT BC H 3 09:57:21.29 257.359 00:00:35 Yes
64 Alan Porter 0472-AU16-GUYS BC H 2 09:57:21.51 257.324 00:00:35 Yes
65 Twin Loft & Joe 62399-IF16-BWI Dink BB H 1 09:57:21.53 257.321 00:00:35 Yes
66 Torontotrifecta.Com 26525-AU16-JEDD BBPD H 1 09:57:21.83 257.274 00:00:36 Yes
67 Dream Team 3496-IF16-MH BCWF H 2 09:57:22.05 257.239 00:00:36 Yes
68 Dream Team 54119-AU16-ARPU DC H 3 09:57:22.12 257.228 00:00:36 Yes
69 Torontotrifecta.Com 26560-AU16-JEDD BB H 2 09:57:22.34 257.194 00:00:36 Yes
70 Floridian Loft 2591-AU16-SCHE DEN 91 BC H 6 09:57:22.36 257.191 00:00:36 Yes
71 Nemelka Racing Pigeon Loft 6746-AU16-NRPL Superstitious X 5016 BB H 1 09:57:22.93 257.102 00:00:37 Yes
72 Dream Loft-Silvercreek 41006-AU16-AA BB H 1 09:57:23.25 257.052 00:00:37 Yes
73 Vipermann Loft 0013-AU16-VIPR BB H 1 09:57:23.49 257.014 00:00:37 Yes
74 Ling Lu 0167-AU16-LING BB H 1 09:57:23.73 256.977 00:00:38 Yes
75 Fl Lin Loft 4385-AU16-ARPU BB H 4 09:57:23.86 256.956 00:00:38 Yes
76 Warbird Loft 6318-AU16-FH Wilanka Flash BB H 2 09:57:24.00 256.934 00:00:38 Yes
77 Roy Kinser 23579-AU16-FOYS BBWF H 1 09:57:24.47 256.861 00:00:38 Yes
78 Kfly Racing Pigeon Loft 1677-AU16-KFLY TOC Stichelbaut x Ruby RB C 1 09:57:24.88 256.797 00:00:39 Yes
79 American Lofts 7540-AU16-CORP GRIZ H 2 09:57:25.19 256.748 00:00:39 Yes
80 A-Champ & Rafter's Family Loft 0045-AU16-CHAM BB H 2 09:57:25.23 256.742 00:00:39 Yes
81 Cal-Tex Loft 2767-AU16-MTZ Repeat Shot BC H 1 09:57:25.34 256.725 00:00:39 Yes
82 Little Reata Loft 16230-AU16-JETT BC H 4 09:57:26.53 256.540 00:00:40 Yes
83 Tim Farr 26274-AU16-AA 105x215 BC H 2 09:57:27.50 256.388 00:00:41 Yes
84 P N W Challenge 6184-AU16-PNWC BB H 2 09:57:27.63 256.368 00:00:41 Yes
85 Little Reata Loft 16199-AU16-JETT BB H 5 09:57:27.72 256.354 00:00:42 Yes
86 Racing Pigeon Mall 0630-AU16-RPM BLK H 1 09:57:27.80 256.342 00:00:42 Yes
87 Kwan Loft 0698-AU16-KWAN DCWF H 1 09:57:28.70 256.202 00:00:42 Yes
88 Greek Connection 0278-AU16-GREK 321 BC H 2 09:57:28.83 256.182 00:00:43 Yes
89 Val & Bill 1706-CU16-WCW BB H 2 09:57:28.96 256.161 00:00:43 Yes
90 Jones Boys 6696-AU16-SLI BB H 2 09:57:29.85 256.023 00:00:44 Yes
91 Alan Porter 0481-AU16-GUYS BB H 3 09:57:30.07 255.989 00:00:44 Yes
92 Batinic Racing Team 76459-AU16-ARPU Survivor BB H 1 09:57:30.12 255.981 00:00:44 Yes
93 Cactus Lofts 0924-AU16-AONE BC H 3 09:57:30.30 255.953 00:00:44 Yes
94 H N R Walker 0489-AU16-YAK Sterling BBWF H 1 09:57:30.34 255.947 00:00:44 Yes
95 Wiltz & Canto 5092-AU16-TEXA BBWF H 1 09:57:30.42 255.935 00:00:44 Yes
96 Bynum Family Lofts 0110-AU16-BFL BB H 2 09:57:31.13 255.825 00:00:45 Yes
97 Fassio/Royer Team 6394-AU16-SLI BB H 2 09:57:31.17 255.819 00:00:45 Yes
98 Lulus Loft 0424-AU16-SD Do It Again BB H 1 09:57:32.52 255.610 00:00:46 Yes
99 Kwan Loft 0691-AU16-KWAN BC H 2 09:57:33.62 255.440 00:00:47 Yes
100 A-Lin Loft 36378-AU16-AA BC H 1 09:57:34.07 255.370 00:00:48 Yes

There are 615 bird records

Note: These Race Results are unofficial and subject to change until verified by the Race Committee and declared final.


Click for forecast!